TimeSAST,TemperatureF,Dew PointF,Humidity,Sea Level PressureIn,VisibilityMPH,Wind Direction,Wind SpeedMPH,Gust SpeedMPH,PrecipitationIn,Events,Conditions,WindDirDegrees,DateUTC
12:00 AM,66.2,32.0,28,30.06,-9999.0,West,5.8,-,N/A,,Unknown,260,2013-03-09 22:00:00
1:00 AM,62.6,32.0,32,30.06,-9999.0,West,4.6,-,N/A,,Clear,280,2013-03-09 23:00:00
2:00 AM,63,31,19,,25,South,3.5,,,,,170,2013-03-10 00:00:00
2:00 AM,62.6,32.0,32,30.06,-9999.0,South,3.5,-,N/A,,Clear,170,2013-03-10 00:00:00
3:00 AM,62.6,33.8,34,30.06,-9999.0,SE,3.5,-,N/A,,Clear,140,2013-03-10 01:00:00
4:00 AM,64.4,33.8,32,30.06,-9999.0,ESE,6.9,-,N/A,,Clear,110,2013-03-10 02:00:00
5:00 AM,67,36,21,,25,ESE,8.1,,,,,110,2013-03-10 03:00:00
5:00 AM,66.2,35.6,32,30.06,-9999.0,ESE,8.1,-,N/A,,Clear,110,2013-03-10 03:00:00
6:00 AM,64.4,35.6,34,30.06,-9999.0,East,4.6,-,N/A,,Unknown,100,2013-03-10 04:00:00
7:00 AM,64.4,37.4,37,30.09,-9999.0,ESE,4.6,-,N/A,,Clear,110,2013-03-10 05:00:00
7:20 AM,68.0,37.4,33,30.09,-9999.0,East,2.3,-,N/A,,Clear,90,2013-03-10 05:20:00
8:00 AM,72,38,19,,25,East,4.6,,,,,100,2013-03-10 06:00:00
8:00 AM,71.6,37.4,29,30.09,-9999.0,East,4.6,-,N/A,,Clear,100,2013-03-10 06:00:00
9:00 AM,78.8,39.2,24,30.09,-9999.0,East,4.6,-,N/A,,Clear,90,2013-03-10 07:00:00
10:00 AM,82.4,37.4,20,30.12,-9999.0,East,8.1,-,N/A,,Clear,80,2013-03-10 08:00:00
10:42 AM,86.0,39.2,19,30.09,-9999.0,East,5.8,-,N/A,,Clear,90,2013-03-10 08:42:00
11:00 AM,85,38,10,,25,ENE,5.8,,,,,60,2013-03-10 09:00:00
11:00 AM,84.2,37.4,19,30.09,-9999.0,ENE,5.8,-,N/A,,Clear,60,2013-03-10 09:00:00
11:19 AM,87.8,37.4,17,30.09,-9999.0,East,4.6,-,N/A,,Clear,80,2013-03-10 09:19:00
12:00 PM,89.6,33.8,14,30.06,-9999.0,NE,3.5,-,N/A,,Clear,50,2013-03-10 10:00:00
1:00 PM,89.6,33.8,14,30.06,-9999.0,SW,4.6,-,N/A,,Clear,220,2013-03-10 11:00:00
1:30 PM,95.0,32.0,11,30.04,-9999.0,South,6.9,-,N/A,,Clear,180,2013-03-10 11:30:00
2:00 PM,96,31,5,,25,SSW,8.1,,,,,200,2013-03-10 12:00:00
2:00 PM,95.0,32.0,11,30.04,-9999.0,SSW,8.1,-,N/A,,Clear,200,2013-03-10 12:00:00
3:00 PM,95.0,30.2,10,30.01,-9999.0,South,5.8,-,N/A,,Clear,190,2013-03-10 13:00:00
4:00 PM,93.2,28.4,10,29.98,-9999.0,SSW,9.2,-,N/A,,Clear,210,2013-03-10 14:00:00
5:00 PM,94,28,4,,25,South,12.7,,,,,190,2013-03-10 15:00:00
5:00 PM,93.2,28.4,10,29.98,-9999.0,South,11.5,-,N/A,,Clear,190,2013-03-10 15:00:00
6:00 PM,95.0,30.2,10,29.98,-9999.0,SSW,10.4,-,N/A,,Clear,200,2013-03-10 16:00:00
7:00 PM,87.8,26.6,11,29.98,-9999.0,SSW,5.8,-,N/A,,Clear,210,2013-03-10 17:00:00
8:00 PM,83,28,7,,25,SW,6.9,,,,,220,2013-03-10 18:00:00
8:00 PM,82.4,28.4,14,30.01,-9999.0,SW,6.9,-,N/A,,Clear,220,2013-03-10 18:00:00
9:00 PM,78.8,26.6,15,30.04,-9999.0,SSW,6.9,-,N/A,,Unknown,210,2013-03-10 19:00:00
10:00 PM,75.2,24.8,15,30.04,-9999.0,SW,4.6,-,N/A,,Unknown,230,2013-03-10 20:00:00
11:00 PM,75,25,8,,,Calm,Calm,,,,,,2013-03-10 21:00:00
11:00 PM,73.4,24.8,16,30.04,-9999.0,North,1.2,-,N/A,,Unknown,350,2013-03-10 21:00:00